Location: Lafig�re
(44.4503°N, 4.0357°E)
Time: 15:08:38
(UTC+00:00)

Altair - All Passes

Search period start: 25 January 2021 00:00
Search period end: 04 February 2021 00:00
Orbit: 1501 x 1682 km, 47.2° (Epoch: 24 January)

Date Brightness Start Highest point End Pass type
(mag) Time Alt. Az. Time Alt. Az. Time Alt. Az.
25 Jan - 02:35:15 10° S 02:42:41 25° SE 02:50:13 10° E visible
25 Jan - 04:36:18 10° SW 04:46:09 67° SSE 04:56:12 10° ENE visible
25 Jan - 06:40:57 10° W 06:51:08 79° N 07:01:20 10° E visible
25 Jan - 08:46:22 10° WNW 08:56:37 85° NNE 09:06:44 10° ESE daylight
25 Jan - 10:51:30 10° WNW 11:01:11 52° SW 11:10:39 10° SE daylight
25 Jan - 12:58:53 10° W 13:04:10 16° WSW 13:09:24 10° SSW daylight
26 Jan - 02:10:38 10° S 02:17:37 22° SE 02:24:44 10° E visible
26 Jan - 04:11:13 10° SW 04:20:58 63° SSE 04:30:58 10° ENE visible
26 Jan - 06:15:42 10° W 06:25:52 80° N 06:36:06 10° ENE visible
26 Jan - 08:21:07 10° WNW 08:31:22 83° NNE 08:41:30 10° ESE daylight
26 Jan - 10:26:15 10° WNW 10:36:03 56° SW 10:45:38 10° SE daylight
26 Jan - 12:33:09 10° W 12:39:09 18° SW 12:45:04 10° SSW daylight
27 Jan - 01:46:05 10° SSE 01:52:35 20° SE 01:59:11 10° E visible
27 Jan - 03:46:09 10° SW 03:55:49 59° SE 04:05:43 10° ENE visible
27 Jan - 05:50:28 10° W 06:00:36 82° NNW 06:10:51 10° ENE visible
27 Jan - 07:55:52 10° WNW 08:06:07 82° NNE 08:16:16 10° E daylight
27 Jan - 10:01:00 10° WNW 10:10:53 59° SW 10:20:35 10° SE daylight
27 Jan - 12:07:32 10° W 12:14:07 20° SW 12:20:36 10° SSW daylight
28 Jan - 01:21:37 10° SSE 01:27:33 18° SE 01:33:34 10° E visible
28 Jan - 03:21:06 10° SW 03:30:40 56° SE 03:40:28 10° ENE visible
28 Jan - 05:25:14 10° WSW 05:35:20 83° NNW 05:45:36 10° ENE visible
28 Jan - 07:30:37 10° WNW 07:40:51 80° N 07:51:02 10° E daylight
28 Jan - 09:35:45 10° WNW 09:45:43 63° SSW 09:55:31 10° SE daylight
28 Jan - 11:41:59 10° W 11:49:04 22° SW 11:56:04 10° S daylight
29 Jan - 00:57:17 10° SSE 01:02:32 16° ESE 01:07:51 10° E visible
29 Jan - 02:56:05 10° SW 03:05:31 53° SE 03:15:12 10° ENE visible
29 Jan - 05:00:01 10° WSW 05:10:06 85° NNW 05:20:21 10° ENE visible
29 Jan - 07:05:22 10° W 07:15:35 79° N 07:25:47 10° E daylight
29 Jan - 09:10:30 10° WNW 09:20:33 66° SSW 09:30:26 10° SE daylight
29 Jan - 11:16:30 10° W 11:24:01 24° SW 11:31:26 10° S daylight
30 Jan - 00:33:07 10° SSE 00:37:31 14° ESE 00:41:58 10° E visible
30 Jan - 02:31:05 10° SSW 02:40:22 49° SE 02:49:55 10° ENE visible
30 Jan - 04:34:48 10° WSW 04:44:51 87° NNW 04:55:06 10° ENE visible
30 Jan - 06:40:08 10° W 06:50:18 78° N 07:00:31 10° E daylight
30 Jan - 08:45:16 10° WNW 08:55:22 70° SSW 09:05:19 10° SE daylight
30 Jan - 10:51:04 10° WNW 10:58:58 27° SW 11:06:45 10° S daylight
31 Jan - 00:09:16 10° SE 00:12:31 12° ESE 00:15:48 10° E visible
31 Jan - 02:06:07 10° SSW 02:15:15 46° SE 02:24:39 10° ENE visible
31 Jan - 04:09:35 10° WSW 04:19:37 89° N 04:29:51 10° ENE visible
31 Jan - 06:14:53 10° W 06:25:02 77° N 06:35:16 10° E visible
31 Jan - 08:20:03 10° WNW 08:30:10 73° SSW 08:40:12 10° SE daylight
31 Jan - 10:25:40 10° WNW 10:33:53 29° SW 10:42:01 10° S daylight
31 Jan - 23:46:29 10° SE 23:47:32 10° ESE 23:48:34 10° ESE night (unlit)
01 Feb - 01:41:11 10° SSW 01:50:08 43° SE 01:59:22 10° ENE visible
01 Feb - 03:44:24 10° WSW 03:54:22 88° SSE 04:04:37 10° ENE visible
01 Feb - 05:49:38 10° W 05:59:46 77° N 06:10:00 10° E visible
01 Feb - 07:54:49 10° WNW 08:04:58 76° SSW 08:15:03 10° SE daylight
01 Feb - 10:00:18 10° WNW 10:08:48 32° SW 10:17:13 10° S daylight
02 Feb - 01:16:17 10° SSW 01:25:02 39° SE 01:34:04 10° ENE visible
02 Feb - 03:19:13 10° WSW 03:29:09 85° SSE 03:39:22 10° ENE visible
02 Feb - 05:24:23 10° W 05:34:29 76° N 05:44:44 10° E visible
02 Feb - 07:29:35 10° WNW 07:39:45 80° SSW 07:49:53 10° ESE daylight
02 Feb - 09:34:57 10° WNW 09:43:43 35° SW 09:52:23 10° SSE daylight
03 Feb - 00:51:24 10° SSW 00:59:57 37° SE 01:08:45 10° ENE visible
03 Feb - 02:54:04 10° WSW 03:03:56 82° SSE 03:14:07 10° ENE visible
03 Feb - 04:59:09 10° W 05:09:13 76° N 05:19:27 10° E visible
03 Feb - 07:04:22 10° WNW 07:14:33 83° SSW 07:24:42 10° ESE daylight
03 Feb - 09:09:38 10° WNW 09:18:37 37° SW 09:27:31 10° SSE daylight
